This demonstration page uses our WeatherBlox Daily Observations layout. Learn more.

Left ArrowRight Arrow

41.12389, -100.76542

Hourly Observations for September 20, 2016

Temp ( °F °C ) Dew Point ( °F °C ) Humidity (%) Winds ( mph kmh ) Pressure ( in mb ) Visibility ( mi km ) Precip ( " mm )
12:53 am 00:53 Clear 56 13.3 52 11.1 87 87 ESE 9 15 30.02 1017 10 16 0.00 0.00
1:53 am 01:53 Clear 57 13.9 52 11.1 83 83 E 9 15 30.02 1017 10 16 0.00 0.00
2:53 am 02:53 Clear 57 13.9 53 11.7 87 87 ESE 9 15 30.01 1016 10 16 0.00 0.00
3:53 am 03:53 Clear 56 13.3 52 11.1 87 87 ESE 8 13 30.00 1016 10 16 0.00 0.00
4:53 am 04:53 Clear 55 12.8 52 11.1 90 90 E 8 13 30.00 1016 10 16 0.00 0.00
5:53 am 05:53 Clear 54 12.2 51 10.6 90 90 ESE 8 13 29.99 1016 10 16 0.00 0.00
6:53 am 06:53 Clear 55 12.8 53 11.7 93 93 ESE 9 15 29.99 1016 10 16 0.00 0.00
7:53 am 07:53 Sunny with Mist and Fog 54 12.2 52 11.1 93 93 Calm 30.02 1017 5 8 0.00 0.00
8:53 am 08:53 Sunny 62 16.7 57 13.9 84 84 Calm 30.02 1017 10 16 0.00 0.00
9:53 am 09:53 Sunny 71 21.7 61 16.1 71 71 SSW 7 11 30.00 1016 10 16 0.00 0.00
10:53 am 10:53 Sunny 76 24.4 61 16.1 60 60 SSW 6 9 29.99 1016 10 16 0.00 0.00
11:53 am 11:53 Sunny 78 25.6 60 15.6 54 54 SW 8 13 29.97 1015 10 16 0.00 0.00
12:53 pm 12:53 Sunny 85 29.4 59 15 42 42 VRB 5 7 29.94 1014 10 16 0.00 0.00
1:53 pm 13:53 Sunny 91 32.8 55 12.8 30 30 WSW 7 11 29.91 1013 10 16 0.00 0.00
2:53 pm 14:53 Sunny 96 35.6 53 11.7 23 23 S 13 20 29.87 1012 10 16 0.00 0.00
3:53 pm 15:53 Sunny 93 33.9 54 12.2 27 27 S 12 19 29.86 1011 10 16 0.00 0.00
4:53 pm 16:53 Sunny 93 33.9 56 13.3 29 29 SSE 6 9 29.86 1011 10 16 0.00 0.00
5:53 pm 17:53 Sunny 88 31.1 62 16.7 42 42 ESE 6 9 29.86 1011 10 16 0.00 0.00
6:53 pm 18:53 Sunny 81 27.2 64 17.8 57 57 E 5 7 29.87 1011 10 16 0.00 0.00
7:53 pm 19:53 Clear 74 23.3 59 15 60 60 ESE 7 11 29.88 1012 10 16 0.00 0.00
8:53 pm 20:53 Clear 72 22.2 57 13.9 59 59 E 6 9 29.88 1012 10 16 0.00 0.00
9:53 pm 21:53 Clear 70 21.1 56 13.3 61 61 E 8 13 29.87 1012 10 16 0.00 0.00
10:53 pm 22:53 Clear 68 20 56 13.3 65 65 ESE 10 17 29.86 1011 10 16 0.00 0.00
11:53 pm 23:53 Clear 69 20.6 57 13.9 66 66 ESE 7 11 29.85 1011 10 16 0.00 0.00

Powered by AerisWeather